[[{"header":{"parameterUnit":"m.s-1","parameterCategory":1,"la1":30.2991,"la2":30.254,"lo1":-89.0895,"lo2":-89.0444,"dy":0.0017,"dx":0.0017,"nx":28,"ny":28,"refTime":"2025-04-04T21:00:00:Z","depth":0,"parameterNumber":2,"parameterNumberName":"U-component_of_WINDS"},"data":[0,0,0,0,0,0,0,0,0,0,0,0,0,0,0,0,0,0,0,0,0,0,0,0,0,0,0,0,0,0,0,0,0,0,0,0,0,0,0,0,0,0,0,0,0,0,0,0,0,0,0,0,0,0,0,0,0,0,-6.3418,-6.3418,0,-6.3474,-6.3474,-6.3475,-6.3433,-6.3431,-6.3429,-6.3427,-6.3482,-6.3485,-6.3488,0,0,0,0,0,0,0,0,0,0,0,0,0,-6.3272,-6.3275,-6.3418,-6.3418,-6.3419,-6.3473,-6.3474,-6.3475,-6.3433,-6.3431,-6.3428,-6.3426,-6.3481,-6.3484,-6.3488,0,0,0,0,0,0,0,0,0,0,0,0,0,-6.3332,-6.3276,-6.3417,-6.3405,-6.3404,-6.3473,-6.3474,-6.3475,-6.3433,-6.3431,-6.3428,-6.3425,-6.3479,-6.3484,-6.3489,-6.3573,0,0,-6.3503,-6.3505,0,0,0,0,0,0,0,0,-6.3329,-6.3338,-6.3406,-6.3406,-6.3405,-6.3443,-6.3443,-6.3508,-6.3434,-6.3422,-6.3427,-6.3424,-6.3471,-6.3476,-6.3493,-6.3575,-6.3577,-6.3503,-6.3506,-6.3508,-6.351,0,0,0,0,0,0,0,-6.3325,-6.3335,-6.344,-6.3407,-6.3406,-6.3395,-6.3401,-6.3455,-6.3461,-6.3423,-6.342,-6.3427,-6.347,-6.3488,-6.3493,-6.3578,-6.3503,-6.3507,-6.351,-6.3512,-6.3732,-6.3734,0,0,0,0,0,0,-6.3322,-6.3332,-6.3438,-6.3441,-6.336,-6.34,-6.3406,-6.3434,-6.346,-6.3462,-6.343,-6.3425,-6.3481,-6.3488,-6.3495,-6.3594,-6.3508,-6.3513,-6.3515,-6.3729,-6.3732,-6.3735,0,0,0,0,0,0,-6.3319,-6.3332,-6.3436,-6.3386,-6.3398,-6.3406,-6.3437,-6.3436,-6.3454,-6.3466,-6.3466,-6.3447,-6.3479,-6.3489,-6.3554,-6.3595,-6.3515,-6.3519,-6.3725,-6.373,-6.3734,-6.3792,0,0,0,0,0,0,-6.3315,-6.3331,-6.3364,-6.3387,-6.3401,-6.3494,-6.3439,-6.3439,-6.3463,-6.3457,-6.3482,-6.3483,-6.3478,-6.3547,-6.3558,-6.36,-6.3523,-6.3721,-6.3727,-6.3732,-6.3786,-6.3798,-6.3808,0,0,0,0,0,-6.331,-6.3377,-6.3365,-6.3378,-6.3442,-6.3496,-6.3504,-6.3497,-6.3466,-6.3498,-6.3506,-6.3482,-6.359,-6.3554,-6.3566,-6.361,-6.3719,-6.3725,-6.3732,-6.3781,-6.3796,-6.3808,0,0,0,0,0,0,-6.3357,-6.338,-6.3367,-6.3444,-6.3469,-6.3489,-6.3529,-6.3513,-6.3546,-6.3539,-6.3529,-6.3535,-6.3603,-6.3614,-6.3573,-6.3693,-6.3649,-6.3659,-6.3682,-6.3696,-6.3706,-6.3701,-6.3527,0,0,0,0,0,-6.3377,-6.342,-6.3437,-6.3503,-6.3517,-6.3521,-6.3545,-6.3538,-6.3562,-6.3572,-6.3584,-6.3608,-6.3647,-6.3673,-6.3709,-6.3789,-6.3793,-6.3826,-6.3837,-6.3845,-6.3852,-6.3894,-6.3908,-6.3758,-6.3757,-6.3757,0,0,-6.3417,-6.3435,-6.3462,-6.3513,-6.3532,-6.3575,-6.353,-6.3578,-6.361,-6.3579,-6.364,-6.3651,-6.3677,-6.375,-6.3782,-6.376,-6.3896,-6.3854,-6.3861,-6.3863,-6.3902,-6.3916,-6.3929,-6.3762,-6.3761,-6.3761,0,0,-6.3511,-6.3531,-6.3587,-6.3607,-6.3635,-6.3638,-6.3652,-6.3676,-6.3681,-6.3744,-6.3721,-6.3759,-6.3827,-6.3846,-6.3865,-6.3969,-6.3948,-6.3982,-6.4036,-6.4077,-6.4089,-6.4099,-6.4134,-6.4147,-6.399,-6.399,-6.399,0,-6.3557,-6.3623,-6.3618,-6.3668,-6.369,-6.3667,-6.3723,-6.3742,-6.3781,-6.3796,-6.3773,-6.3857,-6.3873,-6.3949,-6.3975,-6.3992,-6.4006,-6.3977,-6.4088,-6.4098,-6.4108,-6.414,-6.4154,-6.3994,-6.3993,-6.3993,-6.3992,0,-6.3676,-6.3722,-6.3765,-6.3803,-6.3831,-6.3884,-6.3887,-6.3915,-6.3907,-6.3912,-6.3976,-6.3995,-6.4034,-6.4053,-6.4045,-6.4128,-6.4113,-6.4089,-6.4044,-6.4126,-6.4156,-6.4169,-6.3999,-6.3997,-6.3996,-6.3996,0,0,-6.3798,-6.3836,-6.3851,-6.3868,-6.3899,-6.3934,-6.3987,-6.4026,-6.405,-6.4079,-6.4121,-6.418,-6.4158,-6.4179,-6.4174,-6.421,-6.4289,-6.4181,-6.4181,-6.4198,-6.4379,-6.4394,-6.4409,-6.4277,-6.428,-6.4282,-6.4376,0,-6.3892,-6.3983,-6.3981,-6.4065,-6.4106,-6.4086,-6.4131,-6.4155,-6.4162,-6.4198,-6.4205,-6.4246,-6.4216,-6.4228,-6.4264,-6.4272,-6.4324,-6.4266,-6.4314,-6.4315,-6.4304,-6.4425,-6.4442,-6.4529,-6.4388,-6.439,-6.4391,0,-6.4013,-6.4046,-6.4134,-6.4159,-6.4177,-6.4218,-6.4254,-6.4289,-6.4316,-6.4318,-6.4343,-6.4332,-6.4384,-6.4342,-6.4412,-6.4372,-6.4393,-6.44,-6.4403,-6.4404,-6.4355,-6.4426,-6.4557,-6.4569,-6.4411,-6.4409,-6.4408,0,-6.4089,-6.4157,-6.4218,-6.4234,-6.4265,-6.4294,-6.4308,-6.4332,-6.4356,-6.4389,-6.4404,-6.4442,-6.4461,-6.4491,-6.449,-6.4459,-6.4561,-6.4518,-6.4562,-6.4562,-6.4581,-6.4579,-6.4713,-6.4601,-6.46,-6.46,-6.46,0,-6.4192,-6.4246,-6.4252,-6.4289,-6.435,-6.4347,-6.4407,-6.4418,-6.444,-6.4478,-6.4464,-6.45,-6.4499,-6.4536,-6.4536,-6.4593,-6.4603,-6.4606,-6.4604,-6.4605,-6.4604,-6.4615,-6.4607,-6.4604,-6.4603,-6.4602,-6.4602,0,-6.4285,-6.4292,-6.4357,-6.4383,-6.439,-6.4433,-6.4454,-6.4489,-6.4496,-6.4545,-6.4557,-6.4567,-6.461,-6.4613,-6.4663,-6.4663,-6.4731,-6.4725,-6.4722,-6.4719,-6.4762,-6.4757,-6.4905,-6.4923,-6.4802,-6.4803,-6.4804,0,-6.4348,-6.439,-6.442,-6.4445,-6.4461,-6.4502,-6.4527,-6.4527,-6.4554,-6.4588,-6.4618,-6.466,-6.4693,-6.4762,-6.4773,-6.4811,-6.4803,-6.4853,-6.4809,-6.4808,-6.48,-6.4796,-6.4799,-6.486,-6.4861,-6.4863,-6.4863,0,-6.4459,-6.4461,-6.4497,-6.4536,-6.4566,-6.4596,-6.4624,-6.4646,-6.4649,-6.468,-6.4724,-6.4749,-6.48,-6.4841,-6.4878,-6.4892,-6.4878,-6.4878,-6.489,-6.4888,-6.4884,-6.4884,-6.4741,-6.4873,-6.4872,-6.4872,-6.4871,-6.4871,-6.4537,-6.4572,-6.4599,-6.464,-6.4662,-6.4689,-6.4723,-6.4735,-6.4772,-6.4813,-6.4812,-6.486,-6.4886,-6.4934,-6.4952,-6.4988,-6.4971,-6.4989,-6.4993,-6.4996,-6.4999,-6.4881,-6.4996,-6.4995,-6.4995,-6.4995,-6.4995,0,-6.4644,-6.4661,-6.4699,-6.4739,-6.4772,-6.4759,-6.4789,-6.4817,-6.4859,-6.4885,-6.4918,-6.4969,-6.5009,-6.5024,-6.5063,-6.509,-6.5084,-6.51,-6.5095,-6.5099,-6.5013,-6.4998,-6.5103,-6.5103,-6.5103,-6.5103,-6.5103,-6.5103,-6.4703,-6.4762,-6.4767,-6.4836,-6.4852,-6.4899,-6.4918,-6.4942,-6.4963,-6.502,-6.5053,-6.5064,-6.5085,-6.5126,-6.5162,-6.5165,-6.5179,-6.5196,-6.5197,-6.5116,-6.5105,-6.5094,-6.5079,-6.52,-6.52,-6.5279,-6.5279,-6.528]},{"header":{"parameterUnit":"m.s-1","parameterCategory":1,"la1":30.2991,"la2":30.254,"lo1":-89.0895,"lo2":-89.0444,"dy":0.0017,"dx":0.0017,"nx":28,"ny":28,"refTime":"2025-04-04T21:00:00:Z","depth":0,"parameterNumber":3,"parameterNumberName":"V-component_of_WINDS"},"data":[0,0,0,0,0,0,0,0,0,0,0,0,0,0,0,0,0,0,0,0,0,0,0,0,0,0,0,0,0,0,0,0,0,0,0,0,0,0,0,0,0,0,0,0,0,0,0,0,0,0,0,0,0,0,0,0,0,0,5.035,5.0351,0,5.0445,5.0446,5.0447,5.0442,5.044,5.0439,5.0438,5.0531,5.0534,5.0538,0,0,0,0,0,0,0,0,0,0,0,0,0,5.0162,5.0165,5.035,5.0351,5.0352,5.0444,5.0446,5.0447,5.0442,5.044,5.0439,5.0437,5.0529,5.0534,5.0538,0,0,0,0,0,0,0,0,0,0,0,0,0,5.0249,5.0166,5.0349,5.0361,5.0363,5.0444,5.0446,5.0447,5.0442,5.044,5.0438,5.0436,5.0528,5.0533,5.0539,5.0614,0,0,5.0556,5.0558,0,0,0,0,0,0,0,0,5.0244,5.0255,5.0358,5.036,5.0362,5.0429,5.0414,5.0503,5.0443,5.0412,5.0438,5.0435,5.0498,5.0506,5.0528,5.0618,5.0622,5.0557,5.056,5.0562,5.0564,0,0,0,0,0,0,0,5.0238,5.0251,5.0387,5.0359,5.0362,5.036,5.037,5.0431,5.0465,5.0414,5.0414,5.0426,5.0499,5.0523,5.053,5.0624,5.0556,5.0561,5.0565,5.0567,5.0783,5.0786,0,0,0,0,0,0,5.023,5.0246,5.0384,5.039,5.0297,5.0365,5.0377,5.041,5.0465,5.0471,5.0427,5.0425,5.0514,5.0524,5.0534,5.0628,5.0562,5.0568,5.0571,5.0781,5.0784,5.0787,0,0,0,0,0,0,5.0226,5.0242,5.038,5.0318,5.0336,5.0371,5.0408,5.0413,5.0437,5.0474,5.048,5.0446,5.0513,5.0526,5.0595,5.0631,5.057,5.0575,5.0778,5.0782,5.0785,5.0815,0,0,0,0,0,0,5.022,5.0241,5.027,5.0319,5.0339,5.0441,5.041,5.0416,5.0447,5.0445,5.0493,5.0499,5.0513,5.0587,5.0601,5.0637,5.058,5.0775,5.078,5.0784,5.0811,5.0819,5.0826,0,0,0,0,0,5.0214,5.0273,5.0271,5.0288,5.0377,5.0443,5.0454,5.047,5.045,5.048,5.0504,5.0498,5.0624,5.0594,5.061,5.0648,5.0773,5.0779,5.0784,5.0807,5.0817,5.0826,0,0,0,0,0,0,5.0224,5.0279,5.0278,5.0355,5.0395,5.0442,5.048,5.0479,5.0524,5.052,5.0536,5.0547,5.0617,5.0639,5.0605,5.0726,5.0696,5.0705,5.0709,5.0719,5.0726,5.072,5.0584,0,0,0,0,0,5.0236,5.0287,5.0331,5.0395,5.0415,5.0444,5.0473,5.0482,5.0523,5.0539,5.0569,5.0608,5.0657,5.0689,5.0735,5.0814,5.0825,5.0848,5.0856,5.0862,5.087,5.0915,5.0927,5.0804,5.0804,5.0804,0,0,5.026,5.0296,5.0327,5.0398,5.043,5.0481,5.0458,5.0513,5.0551,5.0547,5.0616,5.0639,5.0683,5.0759,5.0793,5.0779,5.0906,5.0869,5.0873,5.0878,5.0922,5.0934,5.0944,5.0808,5.0807,5.0807,0,0,5.0331,5.0363,5.0421,5.0454,5.0503,5.0523,5.0537,5.0585,5.0601,5.067,5.0669,5.0714,5.0798,5.0831,5.0858,5.0945,5.0941,5.0959,5.0999,5.1043,5.1053,5.1061,5.1094,5.1106,5.0966,5.0966,5.0966,0,5.0355,5.0433,5.045,5.0507,5.0539,5.054,5.0599,5.063,5.0691,5.0713,5.0697,5.0804,5.0834,5.0918,5.0939,5.0961,5.0978,5.0954,5.105,5.1059,5.1067,5.1099,5.1111,5.0968,5.0968,5.0968,5.0968,0,5.0461,5.0516,5.0556,5.0619,5.0655,5.0712,5.0738,5.0773,5.0779,5.08,5.0872,5.0908,5.0964,5.0984,5.0989,5.1069,5.106,5.1047,5.1018,5.1081,5.1111,5.1123,5.0971,5.0971,5.097,5.097,0,0,5.054,5.0614,5.0628,5.0658,5.0713,5.0756,5.0813,5.087,5.09,5.0942,5.0992,5.1064,5.1054,5.1085,5.1094,5.1133,5.1202,5.1115,5.1117,5.1132,5.1295,5.1306,5.1319,5.12,5.1202,5.1204,5.1292,0,5.0619,5.0723,5.0742,5.0833,5.0885,5.0887,5.0938,5.0977,5.0999,5.1046,5.1069,5.1121,5.1102,5.1121,5.1159,5.1185,5.1235,5.1179,5.1246,5.1249,5.1237,5.1335,5.1346,5.1427,5.1304,5.1306,5.1307,0,5.0724,5.0772,5.0869,5.0921,5.0943,5.0988,5.1043,5.1087,5.1132,5.1146,5.1182,5.1188,5.1248,5.1216,5.13,5.1262,5.129,5.1307,5.1311,5.1319,5.1283,5.1347,5.1454,5.1467,5.1325,5.1324,5.1322,0,5.0775,5.0864,5.0935,5.0959,5.102,5.1052,5.1079,5.1122,5.1156,5.1203,5.1225,5.1278,5.1307,5.1348,5.1368,5.1342,5.1451,5.142,5.1465,5.1464,5.1488,5.1487,5.1603,5.1504,5.1504,5.1503,5.1503,0,5.0861,5.0921,5.0959,5.1002,5.107,5.109,5.1156,5.1182,5.1221,5.1269,5.1274,5.1319,5.1341,5.139,5.1406,5.1474,5.1487,5.1499,5.1503,5.15,5.1499,5.152,5.1515,5.1507,5.1506,5.1505,5.1505,0,5.093,5.0958,5.1035,5.1088,5.1102,5.115,5.1195,5.1237,5.1259,5.1321,5.1336,5.1371,5.1428,5.1452,5.1522,5.1533,5.1612,5.161,5.1598,5.1599,5.1643,5.164,5.1778,5.1798,5.1684,5.1685,5.1686,0,5.0985,5.1031,5.109,5.1124,5.1152,5.1206,5.1241,5.1263,5.1299,5.1356,5.1392,5.145,5.1498,5.159,5.1621,5.1675,5.1676,5.1721,5.1684,5.1681,5.1679,5.1677,5.1683,5.1728,5.1729,5.173,5.1731,0,5.1079,5.1091,5.1142,5.12,5.1242,5.1288,5.1332,5.1359,5.1388,5.1429,5.1489,5.1527,5.16,5.1658,5.1715,5.1741,5.1742,5.1742,5.1756,5.1754,5.1746,5.1753,5.1618,5.1739,5.1738,5.1738,5.1737,5.1737,5.1144,5.1186,5.1235,5.1293,5.1329,5.1371,5.1415,5.1444,5.1495,5.1558,5.1567,5.1632,5.1678,5.1754,5.1783,5.1834,5.1823,5.1841,5.1847,5.1852,5.1856,5.1737,5.1844,5.1844,5.1844,5.1843,5.1843,0,5.124,5.1272,5.1325,5.1389,5.1435,5.1433,5.1482,5.152,5.1578,5.1622,5.167,5.174,5.1797,5.1834,5.1891,5.1925,5.1927,5.194,5.1938,5.1945,5.1862,5.1845,5.1938,5.1938,5.1938,5.1938,5.1938,5.1938,5.1296,5.1369,5.1387,5.1479,5.151,5.1576,5.1605,5.1644,5.1679,5.1758,5.1806,5.183,5.1871,5.1932,5.1985,5.1994,5.2016,5.203,5.2038,5.196,5.195,5.1941,5.1926,5.2034,5.2034,5.2118,5.2119,5.2119]}]]